Starlink 11728

operational
NORAD ID: 64323 Int'l Des: 2025-124 Owner: SPXS Country: US Constellation: starlink
LEOCIRCULAR

Über Starlink 11728

Beschreibung wird geladen...

Live-Position

3D-Globus wird geladen...

Nächste Überflüge

Höhenverlauf

Altitude vs Time

uPlot chart will show altitude changes over time

Zweizeiliger Elementsatz

1 64323U 25124G 26095.42660677 .00258516 00000-0 19563-2 0 9995
2 64323 43.0001 227.6730 0003291 282.4862 77.5638 15.70835634 47045
Epoch: 5. Apr. 2026 • Age: 10 hours

Aktueller Status

Höhe 359.4 km
Geschwindigkeit 7.70 km/s
Subsatellitenpunkt 34.88°N, 135.64°W
Startdatum 10. Juni 2025
Alter 0.8 years
Typ internet

Technische Details

Klassifizierung Payload
Masse 960.00 kg
Trockenmasse 910.00 kg
Gesamtmasse 960.00 kg
Länge 0.30 m
Durchmesser 4.10 m
Spannweite 29.00 m
Form Box + pan
Hersteller SPXS
Bus-Typ Starlink V2MD
Phasenstatus In Orbit
Besitzer/Staat SPXS/US

Große Konstellationen

Loading constellations...